| time (UTC) | temp F | wind direction | speed MPH | gust MPH | rain 1hr in | rain 24hr in | rain mn in | humidity % | barometer mb |
| 20260903034022 | 73 | 1.0 | 2.0 | 0.00 | 0.00 | 0.00 | 11 | 1010.3 | |
| 20260903033010 | 73 | 1.0 | 3.0 | 0.00 | 0.00 | 0.00 | 11 | 1010.3 | |
| 20260903031958 | 73 | 1.0 | 1.0 | 0.00 | 0.00 | 0.00 | 11 | 1010.3 | |
| 20260903030947 | 73 | 0.0 | 1.0 | 0.00 | 0.00 | 0.00 | 11 | 1010.2 | |
| 20260903025935 | 73 | 1.0 | 3.0 | 0.00 | 0.00 | 0.00 | 11 | 1010.2 | |
| 20260903024923 | 73 | 1.0 | 3.0 | 0.00 | 0.00 | 0.00 | 11 | 1010.1 | |
| 20260903023912 | 73 | 0.0 | 2.0 | 0.00 | 0.00 | 0.00 | 11 | 1010.2 | |
| 20260903022900 | 73 | 0.0 | 1.0 | 0.00 | 0.00 | 0.00 | 11 | 1010.2 | |
| 20260903021849 | 73 | 0.0 | 0.0 | 0.00 | 0.00 | 0.00 | 11 | 1010.2 | |
| 20260903020837 | 73 | 0.0 | 0.0 | 0.00 | 0.00 | 0.00 | 11 | 1010.2 | |
| 20260903015826 | 73 | 0.0 | 0.0 | 0.00 | 0.00 | 0.00 | 11 | 1010.3 | |
| 20260903014411 | 73 | 0.0 | 0.0 | 0.00 | 0.00 | 0.00 | 11 | 1010.3 | |
| 20260903013359 | 73 | 0.0 | 1.0 | 0.00 | 0.00 | 0.00 | 11 | 1010.4 | |
| 20260903012346 | 71 | 0.0 | 0.0 | 0.00 | 0.00 | 0.00 | 11 | 1010.4 | |
| 20260903011335 | 71 | 0.0 | 1.0 | 0.00 | 0.00 | 0.00 | 11 | 1010.3 | |
| 20260903010323 | 73 | 0.0 | 1.0 | 0.00 | 0.00 | 0.00 | 11 | 1010.3 | |
| 20260903005312 | 73 | 0.0 | 0.0 | 0.00 | 0.00 | 0.00 | 11 | 1010.4 | |
| 20260903003857 | 73 | 0.0 | 0.0 | 0.00 | 0.00 | 0.00 | 11 | 1010.4 | |
| 20260902231126 | 71 | 0.0 | 0.0 | 0.00 | 0.00 | 0.00 | 11 | 1010.4 | |
| 20260902215055 | 73 | 0.0 | 0.0 | 0.00 | 0.00 | 0.00 | 11 | 1010.5 | |
| 20260902214044 | 73 | 0.0 | 0.0 | 0.00 | 0.00 | 0.00 | 11 | 1010.5 | |
| 20260902213033 | 73 | 0.0 | 0.0 | 0.00 | 0.00 | 0.00 | 11 | 1010.4 | |
| 20260902211819 | 73 | 0.0 | 0.0 | 0.00 | 0.00 | 0.00 | 11 | 1010.3 | |
| 20260902210706 | 75 | 0.0 | 0.0 | 0.00 | 0.00 | 0.00 | 11 | 1010.3 | |
| 20260902205351 | 75 | 0.0 | 0.0 | 0.00 | 0.00 | 0.00 | 11 | 1010.3 | |
| 20260902203935 | 75 | 0.0 | 0.0 | 0.00 | 0.00 | 0.00 | 11 | 1010.2 | |
| 20260902202924 | 75 | 0.0 | 0.0 | 0.00 | 0.00 | 0.00 | 11 | 1010.2 | |
| 20260902201911 | 75 | 0.0 | 1.0 | 0.00 | 0.00 | 0.00 | 11 | 1010.2 | |
| 20260902200900 | 75 | 0.0 | 0.0 | 0.00 | 0.00 | 0.00 | 11 | 1010.2 | |
| 20260902195747 | 75 | 0.0 | 0.0 | 0.00 | 0.00 | 0.00 | 11 | 1010.1 | |
| 20260902194230 | 77 | 0.0 | 0.0 | 0.00 | 0.00 | 0.00 | 11 | 1010.2 | |
| 20260902193218 | 77 | 0.0 | 0.0 | 0.00 | 0.00 | 0.00 | 11 | 1010.1 | |
| 20260902192207 | 77 | 0.0 | 1.0 | 0.00 | 0.00 | 0.00 | 11 | 1010.0 | |
| 20260902191156 | 77 | 0.0 | 3.0 | 0.00 | 0.00 | 0.00 | 11 | 1009.8 | |
| 20260902190145 | 78 | 2.0 | 3.0 | 0.00 | 0.00 | 0.00 | 11 | 1010.0 | |
| 20260902185133 | 78 | 1.0 | 3.0 | 0.00 | 0.00 | 0.00 | 11 | 1009.7 | |
| 20260902184122 | 78 | 1.0 | 5.0 | 0.00 | 0.00 | 0.00 | 11 | 1009.7 | |
| 20260902183111 | 78 | 2.0 | 4.0 | 0.00 | 0.00 | 0.00 | 11 | 1009.6 | |
| 20260902182057 | 78 | 2.0 | 6.0 | 0.00 | 0.00 | 0.00 | 11 | 1009.5 | |
| 20260902181046 | 78 | 3.0 | 5.0 | 0.00 | 0.00 | 0.00 | 11 | 1009.6 | |
| 20260902180035 | 78 | 2.0 | 6.0 | 0.00 | 0.00 | 0.00 | 11 | 1009.5 | |
| 20260902175023 | 78 | 2.0 | 4.0 | 0.00 | 0.00 | 0.00 | 11 | 1009.6 | |
| 20260902174013 | 78 | 2.0 | 4.0 | 0.00 | 0.00 | 0.00 | 11 | 1009.5 | |
| 20260902172958 | 78 | 2.0 | 6.0 | 0.00 | 0.00 | 0.00 | 11 | 1009.6 | |
| 20260902171943 | 78 | 2.0 | 6.0 | 0.00 | 0.00 | 0.00 | 11 | 1009.6 | |
| 20260902170931 | 78 | 3.0 | 4.0 | 0.00 | 0.00 | 0.00 | 11 | 1009.6 | |
| 20260902165919 | 78 | 3.0 | 4.0 | 0.00 | 0.00 | 0.00 | 11 | 1009.7 | |
| 20260902164908 | 78 | 2.0 | 5.0 | 0.00 | 0.00 | 0.00 | 11 | 1009.7 | |
| 20260902163856 | 78 | 3.0 | 4.0 | 0.00 | 0.00 | 0.00 | 11 | 1009.7 | |
| 20260902162845 | 80 | 4.0 | 5.0 | 0.00 | 0.00 | 0.00 | 11 | 1009.6 | |
| 20260902161834 | 80 | 2.0 | 4.0 | 0.00 | 0.00 | 0.00 | 11 | 1009.7 | |
| 20260902160822 | 80 | 1.0 | 5.0 | 0.00 | 0.00 | 0.00 | 11 | 1009.7 | |
| 20260902155810 | 80 | 3.0 | 5.0 | 0.00 | 0.00 | 0.00 | 11 | 1009.8 | |
| 20260902154757 | 82 | 0.0 | 4.0 | 0.00 | 0.00 | 0.00 | 11 | 1009.7 | |
| 20260902153745 | 82 | 4.0 | 7.0 | 0.00 | 0.00 | 0.00 | 11 | 1009.8 | |
| 20260902152734 | 82 | 5.0 | 6.0 | 0.00 | 0.00 | 0.00 | 11 | 1009.9 | |
| 20260902151723 | 84 | 4.0 | 7.0 | 0.00 | 0.00 | 0.00 | 11 | 1009.8 | |
| 20260902150712 | 86 | 1.0 | 8.0 | 0.00 | 0.00 | 0.00 | 11 | 1010.0 | |
| 20260902145700 | 84 | 3.0 | 8.0 | 0.00 | 0.00 | 0.00 | 11 | 1010.1 | |
| 20260902144649 | 84 | 3.0 | 9.0 | 0.00 | 0.00 | 0.00 | 11 | 1010.1 | |
| 20260902143634 | 86 | 5.0 | 8.0 | 0.00 | 0.00 | 0.00 | 11 | 1010.3 | |
| 20260902142623 | 87 | 2.0 | 7.0 | 0.00 | 0.00 | 0.00 | 11 | 1010.3 | |
| 20260902141612 | 84 | 2.0 | 7.0 | 0.00 | 0.00 | 0.00 | 11 | 1010.3 | |
| 20260902140600 | 86 | 4.0 | 8.0 | 0.00 | 0.00 | 0.00 | 11 | 1010.4 | |
| 20260902135545 | 86 | 3.0 | 6.0 | 0.00 | 0.00 | 0.00 | 11 | 1010.5 | |
| 20260902134534 | 84 | 5.0 | 8.0 | 0.00 | 0.00 | 0.00 | 11 | 1010.5 | |
| 20260902133522 | 86 | 4.0 | 9.0 | 0.00 | 0.00 | 0.00 | 11 | 1010.6 | |
| 20260902132511 | 84 | 3.0 | 7.0 | 0.00 | 0.00 | 0.00 | 11 | 1010.6 | |
| 20260902131500 | 86 | 2.0 | 6.0 | 0.00 | 0.00 | 0.00 | 11 | 1010.5 | |
| 20260902130447 | 84 | 6.0 | 9.0 | 0.00 | 0.00 | 0.00 | 11 | 1010.6 | |
| 20260902125432 | 84 | 4.0 | 7.0 | 0.00 | 0.00 | 0.00 | 11 | 1010.7 | |
| 20260902124420 | 84 | 5.0 | 9.0 | 0.00 | 0.00 | 0.00 | 11 | 1010.7 | |
| 20260902123409 | 84 | 5.0 | 7.0 | 0.00 | 0.00 | 0.00 | 11 | 1010.9 | |
| 20260902122355 | 87 | 1.0 | 5.0 | 0.00 | 0.00 | 0.00 | 11 | 1010.9 | |
| 20260902121344 | 86 | 3.0 | 6.0 | 0.00 | 0.00 | 0.00 | 11 | 1010.9 | |
| 20260902120332 | 86 | 4.0 | 6.0 | 0.00 | 0.00 | 0.00 | 11 | 1010.8 | |
| 20260902115320 | 86 | 3.0 | 9.0 | 0.00 | 0.00 | 0.00 | 11 | 1011.1 | |
| 20260902114309 | 87 | 1.0 | 5.0 | 0.00 | 0.00 | 0.00 | 11 | 1011.2 | |
| 20260902113258 | 86 | 1.0 | 6.0 | 0.00 | 0.00 | 0.00 | 11 | 1011.2 | |
| 20260902112246 | 86 | 2.0 | 7.0 | 0.00 | 0.00 | 0.00 | 11 | 1011.4 | |
| 20260902111236 | 86 | 1.0 | 6.0 | 0.00 | 0.00 | 0.00 | 11 | 1011.3 | |
| 20260902110216 | 86 | 1.0 | 5.0 | 0.00 | 0.00 | 0.00 | 11 | 1011.3 | |
| 20260902105205 | 84 | 2.0 | 6.0 | 0.00 | 0.00 | 0.00 | 11 | 1011.3 | |
| 20260902104153 | 86 | 1.0 | 4.0 | 0.00 | 0.00 | 0.00 | 11 | 1011.5 | |
| 20260902103142 | 80 | 2.0 | 4.0 | 0.00 | 0.00 | 0.00 | 11 | 1011.5 | |
| 20260902102131 | 80 | 1.0 | 6.0 | 0.00 | 0.00 | 0.00 | 11 | 1011.7 | |
| 20260902101119 | 82 | 3.0 | 8.0 | 0.00 | 0.00 | 0.00 | 11 | 1011.6 | |
| 20260902100108 | 84 | 5.0 | 7.0 | 0.00 | 0.00 | 0.00 | 11 | 1011.6 | |
| 20260902095056 | 86 | 3.0 | 8.0 | 0.00 | 0.00 | 0.00 | 11 | 1011.7 | |
| 20260902094042 | 86 | 0.0 | 7.0 | 0.00 | 0.00 | 0.00 | 11 | 1011.7 | |
| 20260902093021 | 82 | 2.0 | 5.0 | 0.00 | 0.00 | 0.00 | 11 | 1011.7 | |
| 20260902092009 | 82 | 3.0 | 4.0 | 0.00 | 0.00 | 0.00 | 11 | 1011.6 | |
| 20260902090957 | 86 | 1.0 | 5.0 | 0.00 | 0.00 | 0.00 | 11 | 1011.5 | |
| 20260902085944 | 86 | 3.0 | 5.0 | 0.00 | 0.00 | 0.00 | 11 | 1011.6 | |
| 20260902084932 | 87 | 1.0 | 3.0 | 0.00 | 0.00 | 0.00 | 11 | 1011.5 | |
| 20260902083920 | 89 | 0.0 | 3.0 | 0.00 | 0.00 | 0.00 | 11 | 1011.4 | |
| 20260902082908 | 87 | 0.0 | 4.0 | 0.00 | 0.00 | 0.00 | 11 | 1011.2 | |
| 20260902081856 | 82 | 0.0 | 3.0 | 0.00 | 0.00 | 0.00 | 11 | 1011.3 | |
| 20260902080845 | 84 | 0.0 | 4.0 | 0.00 | 0.00 | 0.00 | 11 | 1011.2 | |
| 20260902075833 | 84 | 0.0 | 0.0 | 0.00 | 0.00 | 0.00 | 11 | 1011.2 | |
| 20260902074514 | 86 | 0.0 | 1.0 | 0.00 | 0.00 | 0.00 | 11 | 1011.2 | |
| 20260902073503 | 86 | 0.0 | 0.0 | 0.00 | 0.00 | 0.00 | 11 | 1011.0 | |
| 20260902072451 | 84 | 0.0 | 0.0 | 0.00 | 0.00 | 0.00 | 11 | 1011.0 | |
| 20260902071036 | 82 | 0.0 | 3.0 | 0.00 | 0.00 | 0.00 | 11 | 1010.9 | |
| 20260902070025 | 80 | 0.0 | 0.0 | 0.00 | 0.00 | 0.00 | 11 | 1010.7 | |
| 20260902065011 | 78 | 1.0 | 1.0 | 0.00 | 0.00 | 0.00 | 11 | 1010.8 | |
| 20260902064000 | 78 | 0.0 | 0.0 | 0.00 | 0.00 | 0.00 | 11 | 1010.6 | |
| 20260902062443 | 77 | 0.0 | 0.0 | 0.00 | 0.00 | 0.00 | 11 | 1010.8 | |
| 20260902061230 | 71 | 0.0 | 2.0 | 0.00 | 0.00 | 0.00 | 11 | 1010.7 | |
| 20260902060216 | 71 | 2.0 | 3.0 | 0.00 | 0.00 | 0.00 | 11 | 1010.6 | |
| 20260902055206 | 71 | 0.0 | 1.0 | 0.00 | 0.00 | 0.00 | 11 | 1010.6 | |
| 20260902054150 | 69 | 0.0 | 0.0 | 0.00 | 0.00 | 0.00 | 11 | 1010.6 | |
| 20260902053139 | 69 | 0.0 | 0.0 | 0.00 | 0.00 | 0.00 | 11 | 1010.4 | |
| 20260902052124 | 69 | 0.0 | 1.0 | 0.00 | 0.00 | 0.00 | 11 | 1010.4 | |
| 20260902051113 | 69 | 0.0 | 1.0 | 0.00 | 0.00 | 0.00 | 11 | 1010.4 | |
| 20260902045050 | 69 | 0.0 | 0.0 | 0.00 | 0.00 | 0.00 | 11 | 1010.3 | |
| 20260902044035 | 69 | 0.0 | 1.0 | 0.00 | 0.00 | 0.00 | 11 | 1010.4 | |
| 20260902043023 | 69 | 0.0 | 0.0 | 0.00 | 0.00 | 0.00 | 11 | 1010.5 | |
| 20260902042012 | 69 | 0.0 | 1.0 | 0.00 | 0.00 | 0.00 | 11 | 1010.4 | |
| 20260902041000 | 69 | 0.0 | 1.0 | 0.00 | 0.00 | 0.00 | 11 | 1010.4 | |
| 20260902035848 | 69 | 0.0 | 1.0 | 0.00 | 0.00 | 0.00 | 11 | 1010.3 |